AirNav   Everest Fuels
 
 958 users online  

K67 Oswego Municipal Airport
Oswego, Kansas, USA

GOING TO OSWEGO?


FAA INFORMATION EFFECTIVE 21 MAY 2020

Location

FAA Identifier: K67
Lat/Long: 37-09-33.8000N 095-02-29.4000W
37-09.563333N 095-02.490000W
37.1593889,-95.0415000
(estimated)
Elevation: 832 ft. / 253.6 m (surveyed)
Variation: 05E (1985)
From city: 3 miles E of OSWEGO, KS
Time zone: UTC -5 (UTC -6 during Standard Time)
Zip code: 66725

Airport Operations

Airport use: Open to the public
Activation date: 08/1961
Control tower: no
ARTCC: KANSAS CITY CENTER
FSS: WICHITA FLIGHT SERVICE STATION
NOTAMs facility: ICT (NOTAM-D service available)
Attendance: UNATNDD
Wind indicator: yes
Segmented circle: no
Beacon: white-green (lighted land airport)
Operates sunset to sunrise.

Airport Communications

CTAF: 122.9
WX AWOS-3PT at MIO (17 nm SE): 119.675 (918-544-6164)

Nearby radio navigation aids

VOR radial/distance  VOR name  Freq  Var
OSWr081/7.8OSWEGO VOR/DME117.6008E
EOSr296/34.7NEOSHO VOR/DME117.3007E
CNUr132/38.4CHANUTE VOR/DME109.2005E

Airport Services

Fuel available: 100LL
SELF SVC FUEL AVBL 24HRS
Parking: tiedowns
Airframe service: NONE
Powerplant service: NONE
Bottled oxygen: NONE
Bulk oxygen: NONE

Runway Information

Runway 17/35

Dimensions: 2500 x 50 ft. / 762 x 15 m
Surface: asphalt, in good condition
Weight bearing capacity: 
PCN 4 /F/C/Y/U
Runway edge lights: low intensity
RUNWAY 17  RUNWAY 35
Latitude: 37-09.768857N37-09.356787N
Longitude: 095-02.490013W095-02.490013W
Elevation: 832.0 ft.826.0 ft.
Traffic pattern: leftleft
Runway heading: 175 magnetic, 180 true355 magnetic, 000 true
Markings: basic, in good conditionbasic, in good condition
Obstructions: 23 ft. rr, 660 ft. from runway, 20:1 slope to clearnone

Airport Ownership and Management from official FAA records

Ownership: Publicly-owned
Owner: CITY OF OSWEGO
703 5TH ST
OSWEGO, KS 67356
Phone 620-795-4433
Manager: CALVIN JURGENSEN
PO BOX 210
OSWEGO, KS 67356
Phone (620) 429-0297

Airport Operational Statistics

Aircraft based on the field: 4
Single engine airplanes: 4
    
Aircraft operations: avg 46/month *
73% local general aviation
27% transient general aviation
* for 12-month period ending 02 August 2018

Additional Remarks

PUBLIC PHONE.
WILDLIFE ON & INVOF ARPT.
FOR CD CTC KANSAS CITY ARTCC AT 913-254-8508.

Instrument Procedures

There are no published instrument procedures at K67.

Some nearby airports with instrument procedures:

KMIO - Miami Regional Airport (17 nm SE)
KPTS - Atkinson Municipal Airport (23 nm NE)
KPPF - Tri-City Airport (24 nm NW)
KCFV - Coffeyville Municipal Airport (26 nm W)
KJLN - Joplin Regional Airport (26 nm E)
 
Loc | Ops | Rwys | IFR | FBO | Links
Com | Nav | Svcs | Stats | Notes
Area around K67 (Oswego Municipal Airport)
 
Road maps at: MapQuest Bing Google
 
Aerial photo
No photo
 
Sectional chart

 
Airport distance calculator
Flying to Oswego Municipal Airport? Find the distance to fly.

From to K67

Sunrise and sunset
Times for 24-May-2020
 Local
(UTC-5)
 Zulu
(UTC)
Morning civil twilight05:3610:36
Sunrise06:0611:06
Sunset20:2801:28
Evening civil twilight20:5801:58

Current date and time
Zulu (UTC)  25-May-2020 00:44:30
Local (UTC-5)  24-May-2020 19:44:30
 
METAR
KMIO 
17nm SE 
250035Z AUTO 15009G14KT 8SM CLR 26/20 A2981 RMK AO2
KPTS 
23nm NE 
250035Z AUTO 20006KT 10SM CLR 26/21 A2981 RMK AO2 T02610207
KPPF 
24nm NW 
242352Z AUTO 18006KT 10SM CLR 27/21 A2979 RMK AO2 SLP079 60000 T02670211 10272 20256 56008
KCFV 
26nm W 
242352Z AUTO 17010KT 10SM FEW034 27/21 A2977 RMK AO2 SLP075 60000 T02720211 10278 20256 55009
KJLN 
26nm E 
242353Z 16010KT 10SM CLR 26/18 A2982 RMK AO2 SLP087 T02610183 10294 20256 55012
TAF
KJLN 
26nm E 
241720Z 2418/2518 20012KT P6SM SCT030 TEMPO 2420/2423 VRB15G25KT 2SM TSRA OVC030CB FM250100 16008KT P6SM SCT040 BKN150 PROB30 2510/2515 4SM TSRA OVC030CB
NOTAMs
Click for the latest NOTAMs
NOTAMs are issued by the DoD/FAA and will open in a separate window not controlled by AirNav.

 

 
 

FBO, Fuel Providers, and Aircraft Ground Support

  
 Business Name 
 
 Contact 
 
 Services / Description 
 
Fuel Prices
 
Comments
  
Oswego Municipal Airport 620-795-4433
620-795-2565
[web site]
[email]
Aviation fuel, Aircraft parking (ramp or tiedown), Hangar leasing / sales

More info about Oswego Municipal Airport
independent
100LL
SS $4.16 
 Updated 11-May-2020
 
   1 read write
SS=Self service
Update Fuel Prices
 

Would you like to see your business listed on this page?

 If your business provides an interesting product or service to pilots, flight crews, aircraft, or users of the Oswego Municipal Airport, you should consider listing it here.  To start the listing process, click on the button below
 
Add a business
 

Other Pages about Oswego Municipal Airport

Update a link
 
Copyright © AirNav, LLC. All rights reserved. Privacy Policy  Contact